AirNav   Air Wisconsin pilot careers
 
 396 users online  

MN28 Lux Strip Airport
Cosmos, Minnesota, USA

GOING TO COSMOS?


FAA INFORMATION EFFECTIVE 01 FEBRUARY 2018

Location

FAA Identifier: MN28
Lat/Long: 44-58-58.8630N / 094-44-52.9870W
44-58.981050N / 094-44.883117W
44.9830175 / -94.7480519
(estimated)
Elevation: 1120 ft. / 341 m (estimated)
Variation: 04E (1985)
From city: 3 miles NW of COSMOS, MN
Time zone: UTC -6 (UTC -5 during Daylight Saving Time)
Zip code: 56228

Airport Operations

Airport use: Private use. Permission required prior to landing
Activation date: 02/1977
Control tower: no
ARTCC: MINNEAPOLIS CENTER
FSS: PRINCETON FLIGHT SERVICE STATION
Attendance: UNATNDD
Wind indicator: yes
Segmented circle: no

Airport Communications

WX AWOS-3 at LJF (12 nm NE): 109.0 (320-693-6456)
WX AWOS-3 at HCD (17 nm SE): 118.525 (320-587-3343)
WX AWOS-3 at OVL (17 nm SW): 119.275 (320-523-5924)
WX AWOS-3 at BDH (18 nm NW): 113.7 (320-235-8287)

Nearby radio navigation aids

VOR radial/distance  VOR name  Freq  Var
DWNr236/14.0DARWIN VORTAC109.0007E
BDHr113/18.0WILLMAR VOR/DME113.7004E
RWFr021/34.9REDWOOD FALLS VOR/DME113.3007E

 
NDB name  Hdg/Dist  Freq  Var  ID
GLENCOE292/31.140703EGYL --. -.-- .-..

Airport Services

Runway Information

Runway 18/36

Dimensions: 2550 x 90 ft. / 777 x 27 m
Surface: turf
RUNWAY 18  RUNWAY 36
Traffic pattern: leftleft

Airport Ownership and Management from official FAA records

Ownership: Privately-owned
Owner: DAVID LUX
50846 160TH ST
COSMOS, MN 56228
Phone 320-877-7498
Manager: DAVID LUX
50846 160TH ST
COSMOS, MN 56228
Phone 320-877-7498

Airport Operational Statistics

Aircraft based on the field: 1
Single engine airplanes: 1
    

Additional Remarks

DO NOT CHART PER MINNESOTA DEPARTMENT OF TRANSPORTATION

Instrument Procedures

There are no published instrument procedures at MN28.

Some nearby airports with instrument procedures:

KLJF - Litchfield Municipal Airport (12 nm NE)
KHCD - Hutchinson Municipal Airport-Butler Field (17 nm SE)
KOVL - Olivia Regional Airport (17 nm SW)
KBDH - Willmar Municipal Airport-John L Rice Fiel (18 nm NW)
KPEX - Paynesville Municipal Airport (23 nm N)
 
Loc | Ops | Rwys | IFR | FBO | Links
Com | Nav | Svcs | Stats | Notes

AirNav Hotels Sweepstakes
 
Area around MN28 (Lux Strip Airport)
 
Road maps at: MapQuest Bing Google
 
Aerial photo
No photo
 
Sectional chart

 
Airport distance calculator
Flying to Lux Strip Airport? Find the distance to fly.

From to MN28

Sunrise and sunset
Times for 24-Feb-2018
 Local
(UTC-6)
 Zulu
(UTC)
Morning civil twilight06:3712:37
Sunrise07:0613:06
Sunset17:5823:58
Evening civil twilight18:2800:28

Current date and time
Zulu (UTC)  24-Feb-2018 07:57:07
Local (UTC-6)  24-Feb-2018 01:57:07
 
METAR
KLJF 
13nm NE 
240735Z AUTO 00000KT 10SM CLR M16/M18 A3023 RMK AO2
KOVL 
17nm SW 
240735Z AUTO 02003KT 1 1/2SM BR VV007 M17/M19 A3023 RMK AO2
KHCD 
18nm SE 
240735Z AUTO 00000KT 4SM BR CLR M19/M21 A3024 RMK AO2 T11911209
KBDH 
18nm NW 
240735Z AUTO 03003KT 3SM CLR M21/M22 A3023 RMK AO2
KPEX 
23nm N 
240735Z AUTO 00000KT 10SM CLR M21/M22 A3023 RMK AO2 T12121225
TAF
KRWF 
30nm SW 
240531Z 2406/2506 VRB03KT 3SM BR SCT015 FM240900 VRB03KT 1/4SM FZFG VV002 FM241500 12007KT 3SM BR OVC012 FM242000 10008KT 1/2SM SN FG OVC005 FM250300 29007KT 1 1/2SM -SN OVC007
NOTAMs
Click for the latest NOTAMs
NOTAMs are issued by the DoD/FAA and will open in a separate window not controlled by AirNav.

 

 
 

Would you like to see your business listed on this page?

 If your business provides an interesting product or service to pilots, flight crews, aircraft, or users of the Lux Strip Airport, you should consider listing it here.  To start the listing process, click on the button below
 
Add a business
 

Other Pages about Lux Strip Airport

Update a link
 
Copyright © AirNav, LLC. All rights reserved. Privacy Policy  Contact